Date,TemperatureHighF,TemperatureAvgF,TemperatureLowF,DewpointHighF,DewpointAvgF,DewpointLowF,HumidityHigh,HumidityAvg,HumidityLow,PressureMaxIn,PressureMinIn,WindSpeedMaxMPH,WindSpeedAvgMPH,GustSpeedMaxMPH,PrecipitationSumIn
2013-1-1,30.2,23.0,17.6,29.0,17.6,12.0,93,79,65,29.66,29.49,9,3,13,0.00
2013-1-2,33.3,21.9,12.6,18.0,13.6,10.0,90,72,42,29.67,29.58,6,1,9,0.00
2013-1-3,40.0,30.6,22.6,26.0,22.7,18.0,86,73,56,29.78,29.60,14,3,17,0.02
2013-1-4,40.9,32.0,23.7,25.0,21.8,20.0,87,67,44,29.82,29.68,13,3,18,0.00
2013-1-5,45.3,38.3,30.3,32.0,25.8,21.0,69,61,50,29.69,29.48,10,4,14,0.01
2013-1-6,41.8,33.1,22.3,32.0,24.1,19.0,85,70,53,29.77,29.46,17,6,25,0.00
2013-1-7,45.9,33.8,22.1,29.0,24.1,18.0,86,69,49,29.78,29.53,10,3,19,0.00
2013-1-8,55.5,42.7,28.6,36.0,28.0,23.0,82,59,32,29.58,29.45,11,3,13,0.00
2013-1-9,58.1,50.2,43.8,44.0,36.4,29.0,84,61,37,29.83,29.54,10,4,15,0.00
2013-1-10,57.5,46.8,41.5,57.0,41.7,31.0,98,84,57,29.81,29.14,13,5,15,0.73
2013-1-11,64.3,55.9,50.1,55.0,49.1,47.0,95,79,56,29.24,29.12,13,5,20,0.00
2013-1-12,57.4,47.7,31.5,50.0,40.4,29.0,92,77,52,29.31,29.16,13,4,18,0.66
2013-1-13,31.9,25.0,17.4,29.0,19.8,14.0,92,81,70,29.76,29.28,14,6,23,0.00
2013-1-14,27.1,20.6,16.0,16.0,13.7,10.0,88,75,58,29.90,29.76,4,1,8,0.00
2013-1-15,29.5,23.1,15.6,21.0,17.3,13.0,91,79,62,29.82,29.53,7,1,12,0.00
2013-1-16,42.5,30.6,18.1,24.0,19.8,16.0,91,67,42,29.55,29.41,12,2,14,0.00
2013-1-17,41.5,34.0,24.7,30.0,24.1,19.0,86,68,46,29.86,29.50,11,3,15,0.00
2013-1-18,56.1,39.6,23.2,28.0,23.4,19.0,84,56,30,29.88,29.50,18,4,23,0.00
2013-1-19,65.1,51.8,41.1,35.0,31.2,27.0,60,47,31,29.51,29.27,17,8,29,0.00
2013-1-20,47.5,32.1,25.1,31.0,15.3,8.0,75,51,36,29.71,29.49,14,4,22,0.00
2013-1-21,25.5,20.3,15.2,13.0,3.3,-6.0,70,49,26,29.79,29.68,17,8,20,0.00
2013-1-22,17.6,15.2,12.4,11.0,4.9,-2.0,84,65,47,29.88,29.77,5,1,8,0.00
2013-1-23,43.1,27.5,13.0,24.0,16.8,10.0,87,66,43,29.77,29.54,8,3,16,0.00
2013-1-24,27.5,21.5,14.8,15.0,7.4,0.0,71,55,48,29.98,29.63,14,6,18,0.00
2013-1-25,43.9,34.2,26.2,22.0,17.0,9.0,62,50,41,29.65,29.49,13,5,15,0.00
2013-1-26,39.0,32.0,23.8,22.0,16.5,12.0,74,54,36,29.78,29.61,12,3,13,0.00
2013-1-27,54.2,37.8,29.7,52.0,33.5,18.0,94,85,61,29.68,29.32,15,6,22,0.26
2013-1-28,73.6,63.1,54.9,61.0,57.8,52.0,91,83,65,29.32,29.19,13,6,20,0.00
2013-1-29,67.8,62.3,53.2,60.0,58.1,52.0,96,86,72,29.19,28.77,15,6,28,1.39
2013-1-30,53.2,39.3,27.1,52.0,33.9,17.0,95,81,63,29.29,28.71,20,10,28,0.05
2013-1-31,32.4,24.3,11.3,25.0,14.3,0.0,86,66,56,29.78,29.29,20,10,28,0.00
2013-2-1,28.6,18.8,8.8,12.0,3.9,-2.0,70,54,39,29.90,29.63,12,4,22,0.00
2013-2-2,43.6,34.3,28.4,29.0,20.4,10.0,93,58,45,29.61,29.43,15,6,21,0.00
2013-2-3,34.7,30.7,27.5,29.0,22.0,15.0,94,72,47,29.57,29.38,15,4,29,0.00
2013-2-4,57.1,39.4,28.3,35.0,27.6,20.0,82,64,42,29.37,29.16,12,4,19,0.00
2013-2-5,57.1,39.4,28.8,35.0,29.6,25.0,86,70,42,29.52,29.27,18,4,21,0.00
2013-2-6,51.4,40.2,25.8,33.0,29.9,24.0,92,69,45,29.61,29.42,13,4,14,0.00
2013-2-7,51.8,43.6,39.0,46.0,37.3,31.0,93,79,65,29.42,29.23,13,4,20,0.16
2013-2-8,39.2,34.8,30.4,36.0,29.9,26.0,89,82,76,29.75,29.42,9,4,17,0.00
2013-2-9,41.5,34.9,29.3,35.0,27.9,25.0,89,76,63,29.75,29.40,12,5,16,0.09
2013-2-10,57.5,47.8,37.9,53.0,40.9,30.0,94,80,39,29.39,28.95,24,8,31,0.37
2013-2-11,51.0,42.0,32.4,30.0,26.0,24.0,74,55,37,29.52,29.16,29,9,41,0.00
2013-2-12,45.7,36.4,23.5,30.0,26.6,21.0,93,70,48,29.55,29.32,5,1,7,0.00
2013-2-13,53.9,43.7,35.8,33.0,29.3,26.0,77,59,35,29.32,29.17,20,5,21,0.00
2013-2-14,56.8,46.4,38.9,34.0,31.8,29.0,75,58,36,29.43,29.18,19,6,20,0.00
2013-2-15,42.9,35.5,27.9,29.0,19.0,12.0,78,53,33,29.64,29.43,13,5,17,0.00
2013-2-16,37.2,27.8,21.3,16.0,12.9,8.0,73,56,30,29.66,29.55,10,4,14,0.00
2013-2-17,47.7,35.9,20.9,32.0,21.0,12.0,76,56,37,29.57,29.28,14,5,17,0.00
2013-2-18,57.1,46.0,33.3,48.0,38.5,23.0,90,75,64,29.28,28.91,26,9,33,0.17
2013-2-19,34.1,29.0,24.9,23.0,15.3,9.0,71,57,42,29.68,29.29,19,10,31,0.00
2013-2-20,25.5,22.2,17.3,13.0,10.7,8.0,71,61,51,29.81,29.68,7,3,12,0.00
2013-2-21,31.4,25.6,19.8,30.0,21.2,13.0,94,84,71,29.72,29.21,21,6,23,0.00
2013-2-22,35.1,31.6,24.6,32.0,26.6,19.0,95,82,64,29.46,29.18,16,5,18,0.08
2013-2-23,36.5,26.7,16.9,22.0,19.1,15.0,90,74,52,29.44,29.37,7,2,11,0.04
2013-2-24,44.0,33.3,18.1,28.0,23.4,15.0,91,69,47,29.51,29.41,10,3,11,0.05
2013-2-25,44.7,38.3,32.8,33.0,29.6,27.0,89,72,55,29.44,29.00,17,6,20,0.23
2013-2-26,39.9,35.9,33.3,39.0,34.1,31.0,96,93,89,29.05,28.72,17,6,26,0.22
2013-2-27,34.0,32.7,31.3,32.0,30.1,27.0,93,90,84,29.27,29.04,15,9,19,0.03
2013-2-28,34.8,32.8,31.3,30.0,28.6,28.0,91,85,78,29.48,29.27,12,6,17,0.00
2013-3-1,32.8,30.6,28.3,29.0,27.3,23.0,92,87,81,29.58,29.45,11,4,12,0.02
2013-3-2,34.7,28.9,20.6,24.0,20.0,16.0,86,70,54,29.64,29.57,11,4,17,0.00
2013-3-3,40.7,29.9,14.8,26.0,18.9,12.0,91,66,38,29.60,29.41,8,2,11,0.00
2013-3-4,52.4,42.9,34.5,41.0,31.6,26.0,81,65,49,29.41,29.12,14,6,24,0.01
2013-3-5,42.5,35.0,31.3,34.0,28.9,22.0,94,79,62,29.51,29.15,23,9,32,0.11
2013-3-6,38.3,32.7,23.7,27.0,23.1,20.0,87,68,57,29.75,29.51,16,6,23,0.00
2013-3-7,46.9,33.7,20.6,30.0,25.3,18.0,93,73,47,29.80,29.68,9,3,12,0.00
2013-3-8,53.5,42.1,30.5,33.0,29.9,27.0,85,64,43,29.79,29.57,13,5,16,0.00
2013-3-9,68.8,52.2,40.3,42.0,36.4,30.0,87,58,31,29.56,29.15,18,7,23,0.42
2013-3-10,60.0,53.0,46.0,53.0,48.4,41.0,95,85,50,29.15,28.98,13,4,20,1.36
2013-3-11,45.9,35.6,32.6,43.0,30.4,25.0,90,82,66,29.36,29.08,17,9,24,0.01
2013-3-12,49.5,37.4,29.5,28.0,24.6,21.0,80,62,37,29.59,29.36,20,8,29,0.00
2013-3-13,41.9,34.1,27.7,25.0,18.5,16.0,82,54,39,29.79,29.60,14,6,24,0.00
2013-3-14,52.6,38.7,26.2,34.0,25.6,20.0,79,61,40,29.78,29.46,14,3,19,0.00
2013-3-15,72.8,54.1,31.9,48.0,39.6,29.0,90,62,32,29.46,29.02,9,2,12,0.00
2013-3-16,66.3,49.2,38.7,48.0,39.7,35.0,90,72,46,29.41,28.99,12,5,22,0.10
2013-3-17,38.7,35.4,33.6,35.0,31.6,27.0,94,86,77,29.47,29.15,15,6,22,1.20
2013-3-18,50.9,40.7,36.3,37.0,33.5,23.0,95,78,44,29.39,29.06,15,6,24,0.02
2013-3-19,47.3,38.3,30.7,22.0,17.2,10.0,67,45,23,29.59,29.40,12,5,18,0.00
2013-3-20,36.8,31.8,27.0,30.0,17.8,11.0,82,57,39,29.66,29.49,15,6,25,0.00
2013-3-21,37.6,29.3,21.1,19.0,13.3,10.0,67,53,38,29.51,29.37,8,3,13,0.00
2013-3-22,42.4,36.3,31.4,26.0,22.5,19.0,65,58,46,29.43,29.35,9,4,13,0.00
2013-3-23,52.5,44.0,37.2,35.0,26.7,22.0,73,52,38,29.42,29.19,12,5,17,0.01
2013-3-24,41.9,32.8,30.8,35.0,31.1,30.0,96,93,76,29.24,28.94,11,3,18,0.01
2013-3-25,35.8,31.9,28.5,31.0,27.8,24.0,96,85,71,29.57,29.20,13,4,20,0.19
2013-3-26,41.5,34.6,27.0,26.0,24.7,23.0,87,68,49,29.73,29.57,10,4,14,0.04
2013-3-27,45.8,34.9,20.6,28.0,24.3,18.0,92,68,46,29.78,29.68,5,1,7,0.00
2013-3-28,56.3,46.1,36.7,38.0,31.8,25.0,69,58,46,29.73,29.59,11,5,14,0.00
2013-3-29,61.9,52.3,43.6,45.0,41.8,37.0,85,68,53,29.61,29.53,8,3,13,0.00
2013-3-30,53.6,47.8,43.4,47.0,43.7,41.0,94,86,68,29.56,29.28,11,3,15,0.19
2013-3-31,68.9,56.3,47.5,50.0,43.7,35.0,95,68,30,29.29,29.20,13,4,19,0.00
2013-4-1,51.5,43.5,36.7,35.0,23.3,16.0,65,46,29,29.61,29.29,12,4,19,0.00
2013-4-2,48.8,38.5,27.0,22.0,17.8,12.0,76,46,25,29.73,29.61,6,2,9,0.00
2013-4-3,52.1,43.1,31.9,25.0,22.1,18.0,69,45,31,29.77,29.62,11,4,20,0.00
2013-4-4,61.8,47.0,29.2,29.0,24.0,19.0,81,45,22,29.61,29.39,7,1,11,0.00
2013-4-5,67.5,52.2,34.8,37.0,31.6,28.0,79,49,24,29.54,29.39,7,2,12,0.00
2013-4-6,74.7,63.8,51.7,43.0,37.8,33.0,60,40,24,29.39,29.06,23,8,32,0.00
2013-4-7,79.2,67.8,54.1,59.0,49.6,44.0,84,55,30,29.26,29.12,11,4,22,0.07
2013-4-8,79.3,70.7,61.8,60.0,57.1,54.0,82,63,47,29.21,29.05,15,6,26,0.00
2013-4-9,80.0,72.1,65.0,63.0,60.0,57.0,76,66,54,29.22,29.14,18,6,30,0.00
2013-4-10,81.9,69.0,59.0,67.0,62.8,58.0,97,81,57,29.17,28.92,20,4,41,1.11
2013-4-11,60.6,46.7,40.9,60.0,40.8,29.0,97,80,62,29.11,28.99,21,8,21,0.07
2013-4-12,44.7,41.6,36.9,32.0,30.6,28.0,75,65,60,29.38,29.09,16,7,21,0.00
2013-4-13,62.2,48.8,33.6,42.0,34.1,30.0,88,60,38,29.44,29.25,11,4,18,0.00
2013-4-14,79.9,64.3,49.5,55.0,46.7,41.0,75,56,28,29.25,28.94,17,7,31,0.00
2013-4-15,70.2,61.8,52.8,61.0,55.6,49.0,95,80,66,29.24,29.07,11,4,19,0.54
2013-4-16,53.0,47.0,44.3,50.0,44.8,43.0,94,92,84,29.51,29.27,11,4,18,0.55
2013-4-17,85.0,65.1,48.6,68.0,57.2,46.0,97,78,51,29.48,29.02,17,6,26,0.00
2013-4-18,76.4,60.2,41.6,67.0,54.8,32.0,96,83,68,29.13,28.90,32,9,38,2.51
2013-4-19,51.7,43.6,38.0,31.0,27.1,24.0,70,54,35,29.43,29.11,20,11,30,0.00
2013-4-20,56.5,45.5,30.1,32.0,28.1,23.0,91,54,28,29.70,29.43,8,2,11,0.00
2013-4-21,62.7,52.8,43.1,41.0,35.3,30.0,64,52,41,29.77,29.60,13,6,16,0.00
2013-4-22,72.1,60.6,45.2,46.0,39.5,35.0,70,48,30,29.62,29.32,12,4,21,0.00
2013-4-23,63.0,52.6,40.0,56.0,46.7,38.0,93,82,55,29.39,29.23,12,3,17,0.82
2013-4-24,55.1,44.6,37.3,38.0,32.8,25.0,92,67,32,29.62,29.36,14,5,20,0.02
2013-4-25,65.1,52.6,38.6,36.0,31.5,26.0,77,47,28,29.72,29.60,9,4,14,0.00
2013-4-26,59.6,54.0,49.8,47.0,42.9,36.0,81,67,52,29.73,29.60,13,4,17,0.00
2013-4-27,53.4,51.3,48.7,52.0,49.4,45.0,97,93,82,29.64,29.29,8,3,11,0.42
2013-4-28,57.0,54.2,51.0,52.0,50.7,48.0,97,88,79,29.32,29.25,12,4,16,0.01
2013-4-29,80.6,64.7,49.0,61.0,55.0,48.0,96,74,47,29.29,29.12,15,5,16,0.00
2013-4-30,89.1,75.1,62.5,60.0,57.0,48.0,84,58,25,29.28,29.14,15,5,22,0.00
2013-5-1,84.2,74.1,58.8,60.0,56.1,50.0,87,56,34,29.41,29.28,13,3,17,0.00
2013-5-2,70.9,60.6,44.9,61.0,52.9,43.0,92,77,55,29.51,29.39,12,4,16,0.35
2013-5-3,44.8,41.8,40.1,43.0,40.0,38.0,95,93,91,29.44,29.19,10,5,15,1.85
2013-5-4,50.7,44.5,39.2,44.0,40.4,38.0,95,86,68,29.37,29.20,8,2,9,0.00
2013-5-5,61.3,53.0,45.3,57.0,50.8,43.0,97,92,83,29.37,29.25,12,2,12,0.14
2013-5-6,68.5,60.9,52.9,57.0,53.7,51.0,95,79,59,29.34,29.27,15,3,18,0.00
2013-5-7,79.9,66.7,56.9,59.0,55.3,50.0,93,70,38,29.38,29.32,9,2,10,0.00
2013-5-8,83.0,68.4,51.4,59.0,53.4,46.0,96,64,28,29.39,29.30,8,2,15,0.00
2013-5-9,76.7,69.1,63.2,65.0,59.9,58.0,89,73,53,29.32,29.18,19,3,23,0.17
2013-5-10,65.8,61.7,55.2,61.0,56.6,50.0,93,83,73,29.35,29.18,8,3,19,0.00
2013-5-11,71.0,59.7,50.9,53.0,44.2,32.0,92,61,30,29.51,29.33,18,5,26,0.00
2013-5-12,63.5,52.8,38.0,37.0,30.3,23.0,83,46,26,29.59,29.50,12,3,17,0.00
2013-5-13,75.7,59.2,38.0,45.0,37.1,29.0,90,50,23,29.59,29.38,8,2,16,0.00
2013-5-14,94.8,77.4,57.8,55.0,50.8,45.0,74,43,22,29.37,29.13,16,6,22,0.00
2013-5-15,92.5,81.3,70.9,64.0,57.2,50.0,66,45,31,29.27,29.14,15,6,24,0.00
2013-5-16,82.7,74.7,65.9,67.0,62.4,57.0,83,67,43,29.28,29.18,14,4,18,0.00
2013-5-17,77.9,70.5,65.9,68.0,63.4,59.0,91,78,64,29.30,29.24,8,2,10,0.08
2013-5-18,84.0,73.4,63.9,66.0,64.6,63.0,95,75,53,29.35,29.20,12,3,12,0.00
2013-5-19,91.3,80.5,70.2,73.0,68.4,63.0,86,68,48,29.24,29.02,16,6,21,0.00
2013-5-20,81.8,72.6,62.3,71.0,65.7,60.0,97,80,60,29.22,29.02,16,5,49,1.05
2013-5-21,81.5,70.6,63.0,66.0,63.1,61.0,97,78,55,29.14,29.03,14,4,19,0.03
2013-5-22,76.8,69.2,62.7,62.0,57.7,54.0,92,69,45,29.21,29.00,17,7,24,0.00
2013-5-23,64.7,62.2,56.1,60.0,54.4,50.0,91,76,65,29.57,29.21,12,5,19,0.11
2013-5-24,70.8,59.1,47.7,51.0,41.5,35.0,89,56,30,29.75,29.57,9,3,13,0.00
2013-5-25,69.0,61.5,49.5,56.0,49.7,43.0,85,66,46,29.70,29.47,12,3,15,0.09
2013-5-26,84.7,71.3,57.7,69.0,59.1,50.0,78,66,53,29.53,29.32,10,4,17,0.03
2013-5-27,83.7,72.7,65.3,70.0,64.5,61.0,93,76,60,29.36,29.09,14,5,24,0.42
2013-5-28,85.3,75.8,69.8,71.0,66.8,63.0,91,75,56,29.22,29.13,11,4,25,0.06
2013-5-29,88.1,79.6,68.9,68.0,64.7,62.0,83,62,45,29.28,29.14,16,5,24,0.00
2013-5-30,83.7,76.4,65.4,72.0,67.6,63.0,93,74,62,29.24,29.12,16,5,26,0.47
2013-5-31,81.4,71.0,64.5,73.0,66.6,63.0,98,86,73,29.20,29.06,19,5,27,1.89
2013-6-1,79.1,69.0,64.2,68.0,63.6,57.0,98,84,57,29.23,29.04,18,6,23,0.07
2013-6-2,68.2,64.7,60.3,58.0,56.3,53.0,82,74,66,29.37,29.22,11,4,15,0.00
2013-6-3,72.3,64.3,58.4,53.0,50.7,46.0,80,63,45,29.44,29.33,8,2,13,0.00
2013-6-4,77.5,66.0,53.7,58.0,54.0,50.0,88,67,48,29.43,29.33,8,2,13,0.00
2013-6-5,83.6,70.2,58.0,64.0,60.1,56.0,95,73,42,29.36,29.19,6,1,8,0.06
2013-6-6,79.4,70.9,61.5,64.0,59.7,53.0,96,70,45,29.21,29.16,9,3,15,0.01
2013-6-7,76.8,68.0,59.6,59.0,57.1,55.0,89,69,52,29.25,29.20,8,2,15,0.00
2013-6-8,81.7,71.0,56.6,61.0,56.2,53.0,95,63,39,29.32,29.23,9,2,13,0.00
2013-6-9,79.7,68.7,63.1,64.0,61.3,59.0,95,78,58,29.27,29.13,17,4,33,0.36
2013-6-10,81.7,71.1,62.9,65.0,62.2,61.0,94,75,51,29.25,29.11,11,3,14,0.06
2013-6-11,92.6,78.8,61.0,74.0,67.5,59.0,95,70,46,29.30,29.18,10,3,17,0.00
2013-6-12,96.0,86.6,75.1,74.0,71.3,69.0,80,61,46,29.28,29.06,18,6,25,0.00
2013-6-13,85.5,77.0,67.5,72.0,63.3,57.0,87,64,44,29.32,29.07,14,5,25,0.00
2013-6-14,85.6,74.0,60.2,62.0,58.8,57.0,92,61,41,29.42,29.28,12,2,13,0.00
2013-6-15,90.3,77.6,68.8,70.0,65.5,61.0,94,68,49,29.43,29.25,14,4,23,1.22
2013-6-16,85.9,75.2,68.5,73.0,69.8,67.0,96,84,63,29.35,29.24,10,2,17,0.12
2013-6-17,87.1,72.8,66.1,75.0,68.8,65.0,96,88,62,29.27,29.19,11,2,17,1.78
2013-6-18,90.6,75.7,61.8,71.0,63.4,58.0,98,70,35,29.30,29.24,9,2,13,0.01
2013-6-19,87.6,75.7,63.5,66.0,63.3,60.0,94,68,41,29.40,29.30,7,1,10,0.00
2013-6-20,92.1,81.1,65.6,69.0,67.0,64.0,93,64,44,29.44,29.36,9,2,14,0.00
2013-6-21,93.3,83.8,74.0,74.0,71.2,69.0,86,67,52,29.43,29.31,12,4,17,0.00
2013-6-22,90.6,77.2,69.9,76.0,69.1,64.0,87,76,60,29.40,29.32,22,4,29,0.88
2013-6-23,90.3,75.0,67.9,75.0,68.0,64.0,95,80,57,29.38,29.28,11,4,21,1.13
2013-6-24,93.6,80.7,67.4,76.0,70.1,66.0,95,73,46,29.40,29.25,14,4,15,0.00
2013-6-25,94.0,85.0,76.4,75.0,72.3,70.0,81,67,50,29.29,29.11,14,5,20,0.00
2013-6-26,93.7,80.2,73.1,76.0,73.5,70.0,95,81,55,29.19,29.05,11,4,38,0.59
2013-6-27,96.4,83.4,72.4,74.0,69.9,64.0,96,67,38,29.22,29.09,12,3,17,0.00
2013-6-28,90.4,82.3,73.7,73.0,64.7,55.0,89,59,32,29.18,29.03,14,5,23,0.00
2013-6-29,82.3,73.5,66.1,66.0,61.5,59.0,91,67,50,29.07,28.98,15,5,27,0.29
2013-6-30,77.9,69.5,65.7,65.0,63.0,61.0,91,80,61,29.25,29.07,10,3,16,0.02
2013-7-1,80.8,72.4,64.0,63.0,55.8,53.0,87,57,41,29.31,29.24,9,3,20,0.00
2013-7-2,70.5,64.5,61.6,62.0,58.9,53.0,95,83,55,29.39,29.28,9,2,13,0.53
2013-7-3,83.7,72.7,61.6,63.0,61.2,59.0,97,70,47,29.43,29.34,6,2,10,0.01
2013-7-4,85.7,75.7,62.4,63.0,60.6,59.0,89,62,43,29.43,29.33,9,2,13,0.00
2013-7-5,85.5,77.5,66.1,69.0,65.5,60.0,95,68,45,29.41,29.33,9,3,11,0.00
2013-7-6,89.5,77.2,70.4,70.0,66.1,60.0,89,70,41,29.38,29.29,7,2,14,0.02
2013-7-7,92.8,80.9,67.1,72.0,67.9,64.0,89,67,44,29.38,29.31,10,4,14,0.00
2013-7-8,94.2,83.7,75.4,74.0,71.0,68.0,78,67,46,29.42,29.33,10,3,13,0.00
2013-7-9,95.2,87.0,79.0,75.0,72.9,71.0,77,64,50,29.37,29.24,11,4,13,0.00
2013-7-10,89.3,81.0,72.8,76.0,71.9,68.0,91,75,53,29.32,29.21,13,5,20,0.30
2013-7-11,84.3,75.5,67.6,68.0,62.0,58.0,87,65,43,29.39,29.31,10,3,14,0.00
2013-7-12,85.8,75.3,64.0,62.0,58.2,52.0,88,59,31,29.45,29.36,10,2,12,0.00
2013-7-13,86.5,76.0,60.8,64.0,60.4,58.0,92,61,41,29.43,29.34,11,2,14,0.00
2013-7-14,90.4,79.1,68.6,72.0,66.5,63.0,90,67,45,29.47,29.38,10,4,14,0.00
2013-7-15,91.6,82.6,74.2,74.0,72.5,71.0,91,73,53,29.55,29.46,8,3,13,0.00
2013-7-16,94.1,85.0,76.5,74.0,72.0,70.0,87,67,46,29.62,29.54,8,2,12,0.00
2013-7-17,94.7,85.0,74.4,75.0,72.5,71.0,90,68,48,29.65,29.51,6,1,8,0.00
2013-7-18,96.3,86.3,74.9,76.0,72.8,71.0,90,66,46,29.54,29.35,7,1,10,0.00
2013-7-19,97.9,86.3,76.9,74.0,72.1,70.0,83,64,41,29.35,29.19,9,3,13,0.00
2013-7-20,93.9,82.8,75.2,75.0,71.4,68.0,82,69,50,29.24,29.13,8,4,15,0.00
2013-7-21,83.4,77.9,73.2,73.0,70.5,69.0,88,78,66,29.27,29.17,5,1,9,0.00
2013-7-22,93.1,81.1,70.5,74.0,71.0,67.0,94,74,47,29.20,29.10,10,2,15,0.00
2013-7-23,93.2,83.0,74.6,74.0,70.5,64.0,83,67,46,29.23,29.07,9,3,13,0.00
2013-7-24,81.3,73.6,66.7,64.0,57.4,52.0,82,59,39,29.37,29.24,10,4,13,0.00
2013-7-25,83.4,72.8,59.2,61.0,57.4,56.0,91,61,39,29.46,29.37,10,1,13,0.00
2013-7-26,74.4,71.9,69.0,69.0,63.8,58.0,89,76,61,29.41,29.29,10,3,15,0.05
2013-7-27,76.5,70.0,59.5,67.0,56.7,51.0,92,65,42,29.35,29.30,12,3,17,0.00
2013-7-28,80.9,68.2,53.2,57.0,52.4,48.0,93,61,33,29.40,29.33,11,3,17,0.00
2013-7-29,77.0,69.2,57.5,65.0,60.6,55.0,94,75,55,29.50,29.40,8,2,11,0.00
2013-7-30,77.5,71.0,65.4,71.0,67.3,62.0,95,88,72,29.45,29.33,10,3,11,1.44
2013-7-31,82.6,74.2,67.7,73.0,69.4,65.0,98,86,65,29.38,29.32,8,2,14,0.00
2013-8-1,88.2,75.9,64.7,68.0,62.7,56.0,95,68,34,29.42,29.31,6,2,11,0.00
2013-8-2,82.3,75.2,69.9,71.0,67.6,60.0,95,78,63,29.32,29.24,8,2,14,0.42
2013-8-3,85.7,76.6,68.4,72.0,69.2,63.0,97,79,58,29.44,29.26,12,2,13,0.00
2013-8-4,82.7,73.5,62.5,64.0,60.2,56.0,94,66,42,29.51,29.41,5,1,11,0.00
2013-8-5,74.8,71.9,69.3,69.0,64.4,61.0,92,77,67,29.43,29.21,13,3,16,0.00
2013-8-6,90.3,78.7,70.3,73.0,70.6,69.0,97,78,52,29.26,29.17,7,3,14,0.00
2013-8-7,89.3,80.3,74.0,73.0,70.5,66.0,93,74,47,29.24,29.13,13,4,19,0.00
2013-8-8,80.1,75.9,71.8,74.0,72.1,70.0,95,88,79,29.30,29.21,5,1,8,0.59
2013-8-9,82.0,75.0,68.4,71.0,68.1,65.0,97,80,60,29.40,29.27,6,1,10,0.01
2013-8-10,86.6,76.6,66.5,69.0,65.2,60.0,96,70,41,29.47,29.39,9,2,12,0.00
2013-8-11,88.0,75.2,59.9,63.0,58.9,51.0,96,62,29,29.48,29.37,6,2,9,0.00
2013-8-12,81.2,75.5,70.7,75.0,68.6,61.0,95,80,60,29.40,29.24,7,2,12,0.28
2013-8-13,79.6,72.5,66.0,70.0,63.7,51.0,96,75,57,29.46,29.29,8,3,13,0.00
2013-8-14,74.5,65.6,53.3,55.0,52.1,49.0,93,64,40,29.55,29.46,7,2,12,0.00
2013-8-15,74.9,65.7,55.7,57.0,53.5,50.0,93,67,45,29.51,29.41,8,2,13,0.00
2013-8-16,76.6,66.8,55.7,58.0,55.6,54.0,94,70,46,29.49,29.43,8,2,12,0.00
2013-8-17,82.3,70.0,57.6,62.0,58.9,55.0,94,70,48,29.52,29.44,11,2,13,0.00
2013-8-18,84.2,73.2,64.3,64.0,62.3,60.0,89,70,48,29.51,29.40,7,1,9,0.00
2013-8-19,88.6,76.3,62.9,68.0,63.6,61.0,95,68,40,29.46,29.35,7,1,10,0.00
2013-8-20,89.1,78.7,66.4,68.0,65.8,63.0,93,67,43,29.45,29.35,5,1,9,0.00
2013-8-21,92.0,80.4,68.4,69.0,66.6,64.0,92,66,40,29.45,29.35,8,2,14,0.00
2013-8-22,92.2,82.2,73.5,73.0,70.2,67.0,87,68,48,29.43,29.33,9,2,12,0.00
2013-8-23,91.1,81.7,73.9,73.0,70.5,68.0,94,70,48,29.43,29.36,11,2,12,0.00
2013-8-24,92.9,81.3,68.2,70.0,67.0,63.0,94,64,38,29.53,29.42,8,2,12,0.00
2013-8-25,94.7,82.2,66.4,73.0,65.9,61.0,91,60,34,29.59,29.47,8,2,11,0.00
2013-8-26,96.5,84.8,74.6,75.0,71.7,66.0,92,68,37,29.53,29.38,11,3,12,0.00
2013-8-27,96.1,84.5,75.0,73.0,70.0,65.0,85,64,38,29.41,29.30,13,3,18,0.00
2013-8-28,96.1,83.8,70.9,70.0,67.7,65.0,90,61,36,29.36,29.29,13,2,15,0.00
2013-8-29,99.4,85.9,73.3,73.0,70.4,68.0,87,62,36,29.36,29.26,9,2,12,0.00
2013-8-30,99.8,87.7,76.0,75.0,71.6,68.0,84,61,36,29.28,29.14,12,3,16,0.00
2013-8-31,101.8,88.3,77.3,75.0,71.9,67.0,86,61,32,29.16,29.03,11,4,18,0.02
2013-9-1,92.0,81.9,74.8,78.0,73.6,67.0,95,77,51,29.16,29.08,13,2,19,0.04
2013-9-2,85.2,77.4,69.3,73.0,63.0,60.0,84,62,43,29.29,29.17,8,2,15,0.00
2013-9-3,83.4,71.6,57.8,62.0,58.3,55.0,93,66,40,29.42,29.29,6,1,8,0.00
2013-9-4,88.7,74.6,59.7,63.0,58.5,54.0,91,61,30,29.50,29.40,6,1,8,0.00
2013-9-5,89.1,75.9,60.9,65.0,60.9,58.0,91,63,37,29.53,29.45,6,1,10,0.00
2013-9-6,90.2,78.4,65.9,66.0,63.1,59.0,89,62,35,29.51,29.35,10,2,12,0.00
2013-9-7,94.2,80.6,65.7,68.0,64.7,61.0,90,61,34,29.38,29.23,12,2,15,0.00
2013-9-8,85.6,78.1,71.7,75.0,70.2,65.0,94,77,63,29.35,29.22,7,2,11,0.42
2013-9-9,99.6,85.9,75.0,73.0,70.1,65.0,88,63,35,29.30,29.22,11,2,14,0.00
2013-9-10,98.6,86.1,74.4,71.0,66.5,60.0,83,55,29,29.40,29.29,11,3,16,0.00
2013-9-11,97.8,85.1,70.1,69.0,66.0,62.0,86,55,33,29.45,29.34,8,2,12,0.00
2013-9-12,87.2,79.0,67.1,70.0,62.9,50.0,83,59,40,29.41,29.30,8,3,14,0.00
2013-9-13,76.5,66.4,56.7,57.0,50.4,43.0,79,58,37,29.47,29.40,13,2,14,0.00
2013-9-14,77.7,65.1,51.2,49.0,44.6,37.0,84,51,25,29.51,29.37,8,2,10,0.00
2013-9-15,82.5,70.2,57.8,65.0,54.4,46.0,89,59,42,29.44,29.32,9,3,12,0.01
2013-9-16,72.8,65.2,60.0,64.0,57.5,54.0,91,77,55,29.61,29.45,9,4,15,0.00
2013-9-17,71.9,64.9,59.5,65.0,58.9,54.0,89,81,71,29.58,29.41,6,2,9,0.02
2013-9-18,87.8,75.1,65.8,75.0,67.5,62.0,94,78,57,29.42,29.28,7,2,13,0.13
2013-9-19,92.0,81.3,73.5,73.0,70.5,68.0,88,71,48,29.32,29.17,13,4,19,0.00
2013-9-20,79.5,69.4,61.7,70.0,65.2,54.0,95,87,71,29.25,29.20,10,2,15,0.36
2013-9-21,72.6,61.3,52.1,55.0,51.7,50.0,96,73,46,29.32,29.24,8,2,14,0.00
2013-9-22,75.9,61.8,47.6,56.0,51.0,47.0,96,71,40,29.37,29.27,6,1,10,0.00
2013-9-23,77.4,65.9,54.1,54.0,51.3,50.0,86,62,40,29.38,29.25,10,3,13,0.00
2013-9-24,82.4,69.7,58.1,67.0,58.8,51.0,84,69,50,29.30,29.11,9,3,15,0.00
2013-9-25,82.5,72.5,66.7,66.0,64.1,62.0,92,76,52,29.20,29.12,7,2,10,0.00
2013-9-26,84.4,73.5,62.1,66.0,61.5,58.0,92,69,45,29.34,29.20,9,2,11,0.00
2013-9-27,85.1,73.8,63.9,65.0,59.3,55.0,86,63,39,29.43,29.33,11,3,16,0.00
2013-9-28,84.6,74.0,65.0,68.0,61.6,55.0,89,66,50,29.38,29.27,12,4,22,0.00
2013-9-29,75.4,65.0,55.3,66.0,53.9,48.0,90,70,39,29.41,29.31,8,2,16,0.03
2013-9-30,79.9,65.2,49.3,64.0,57.3,47.0,94,77,54,29.33,29.22,9,2,13,0.00
2013-10-1,82.7,71.5,64.0,70.0,66.3,63.0,95,84,64,29.36,29.27,6,2,10,0.00
2013-10-2,85.4,74.3,68.1,71.0,68.3,67.0,96,83,58,29.39,29.28,10,2,13,0.02
2013-10-3,85.4,76.6,68.8,74.0,68.5,65.0,92,77,59,29.30,29.20,14,4,24,0.03
2013-10-4,87.4,77.7,69.3,71.0,69.1,67.0,94,76,54,29.30,29.22,13,4,19,0.00
2013-10-5,78.5,69.8,55.5,71.0,65.4,52.0,94,86,65,29.28,29.17,13,4,17,0.16
2013-10-6,56.8,53.1,48.5,52.0,44.5,40.0,93,74,54,29.26,29.19,19,6,23,0.01
2013-10-7,71.2,57.9,51.4,50.0,47.4,46.0,86,70,41,29.48,29.26,12,4,16,0.00
2013-10-8,75.2,61.6,47.5,53.0,48.3,46.0,94,65,37,29.55,29.46,9,2,15,0.00
2013-10-9,76.1,62.1,45.9,55.0,49.7,44.0,94,66,42,29.53,29.43,6,1,13,0.00
2013-10-10,80.5,67.5,54.9,63.0,57.4,53.0,94,72,47,29.49,29.34,9,1,12,0.00
2013-10-11,80.4,68.8,58.6,62.0,57.7,55.0,91,70,42,29.37,29.23,11,3,19,0.00
2013-10-12,77.5,66.5,52.4,65.0,57.3,47.0,93,74,45,29.54,29.27,7,2,11,0.09
2013-10-13,74.6,58.9,43.7,47.0,41.2,36.0,95,58,25,29.73,29.54,7,1,11,0.00
2013-10-14,67.4,59.0,50.8,54.0,42.9,35.0,72,56,45,29.69,29.40,9,3,12,0.00
2013-10-15,67.8,63.0,56.2,64.0,58.6,51.0,95,85,73,29.40,29.23,13,4,13,0.53
2013-10-16,60.1,52.2,44.5,50.0,43.0,41.0,92,72,53,29.40,29.31,18,4,18,0.00
2013-10-17,64.4,53.5,45.4,48.0,43.6,39.0,93,72,39,29.36,29.27,16,3,16,0.02
2013-10-18,61.8,53.0,44.9,45.0,41.1,36.0,85,66,41,29.41,29.30,10,4,14,0.03
2013-10-19,57.8,47.3,40.5,41.0,38.1,34.0,93,73,42,29.39,29.30,13,4,22,0.06
2013-10-20,72.1,57.6,46.4,45.0,41.2,38.0,72,56,33,29.32,29.20,21,6,23,0.00
2013-10-21,56.1,50.4,38.1,45.0,39.8,32.0,86,68,44,29.42,29.26,11,3,15,0.00
2013-10-22,60.7,46.4,36.6,47.0,38.3,33.0,88,75,52,29.42,29.15,16,4,28,0.05
2013-10-23,50.1,42.9,37.6,37.0,33.3,28.0,86,71,44,29.50,29.35,11,5,18,0.00
2013-10-24,49.3,41.1,29.6,37.0,29.8,24.0,91,67,42,29.78,29.49,13,4,22,0.00
2013-10-25,55.1,40.4,25.4,31.0,27.4,23.0,94,64,32,29.89,29.57,8,1,13,0.00
2013-10-26,65.6,50.8,38.6,43.0,34.1,28.0,72,54,38,29.57,29.36,20,5,26,0.00
2013-10-27,61.6,45.5,28.4,33.0,30.0,26.0,93,60,28,29.50,29.38,7,1,12,0.00
2013-10-28,68.7,52.5,34.7,46.0,40.0,31.0,93,65,39,29.59,29.41,5,1,10,0.00
2013-10-29,57.8,53.7,49.8,57.0,47.4,38.0,97,80,60,29.59,29.40,10,3,12,0.14
2013-10-30,72.5,64.9,57.4,68.0,62.0,57.0,98,90,76,29.41,29.16,12,3,18,0.03
2013-10-31,65.4,60.5,48.0,65.0,58.7,46.0,98,93,86,29.16,28.72,14,5,21,0.59
2013-11-1,62.5,53.1,47.3,47.0,44.1,40.0,93,74,47,29.21,28.98,15,6,21,0.00
2013-11-2,55.0,47.4,36.9,42.0,39.1,35.0,93,74,50,29.55,29.20,11,3,17,0.00
2013-11-3,57.6,45.9,31.6,41.0,34.7,31.0,97,69,40,29.66,29.51,10,3,16,0.00
2013-11-4,60.9,52.6,47.1,47.0,41.5,36.0,72,66,55,29.58,29.45,13,5,25,0.00
2013-11-5,59.5,55.8,51.6,54.0,50.4,46.0,95,82,70,29.61,29.34,14,4,19,0.21
2013-11-6,58.4,49.0,37.9,57.0,45.4,34.0,94,87,78,29.63,29.24,18,6,20,0.28
2013-11-7,56.1,41.9,30.2,39.0,34.0,29.0,96,76,43,29.76,29.63,12,2,17,0.00
2013-11-8,58.9,45.4,28.4,37.0,32.6,27.0,95,65,32,29.73,29.44,13,4,22,0.01
2013-11-9,67.6,54.5,41.8,41.0,38.5,35.0,84,57,35,29.59,29.41,14,5,21,0.00
2013-11-10,56.3,47.1,40.5,37.0,32.3,30.0,84,58,37,29.79,29.59,5,1,10,0.00
2013-11-11,65.2,48.4,32.5,48.0,37.7,30.0,91,68,49,29.86,29.47,11,4,21,0.10
2013-11-12,36.2,29.2,20.4,30.0,19.1,15.0,89,67,45,30.14,29.87,16,4,21,0.00
2013-11-13,48.3,33.0,18.1,19.0,16.4,13.0,91,56,25,30.08,29.68,10,2,14,0.00
2013-11-14,59.8,45.5,30.4,26.0,19.8,15.0,61,39,19,29.67,29.41,13,4,23,0.00
2013-11-15,59.0,50.5,46.7,43.0,33.3,25.0,82,53,37,29.42,29.28,11,3,22,0.00
2013-11-16,65.5,58.1,47.9,61.0,53.1,43.0,91,83,75,29.28,28.97,18,6,28,0.14
2013-11-17,76.5,65.7,49.1,65.0,49.3,25.0,93,61,21,29.32,28.73,32,10,48,0.04
2013-11-18,56.3,46.2,34.0,40.0,33.2,27.0,88,64,33,29.66,29.33,14,3,24,0.00
2013-11-19,48.5,39.3,29.3,29.0,27.4,26.0,91,64,43,29.72,29.58,11,2,12,0.00
2013-11-20,49.8,41.0,35.2,41.0,33.7,27.0,86,75,68,29.58,29.39,12,5,17,0.09
2013-11-21,50.5,49.7,48.5,50.0,46.0,41.0,97,88,71,29.55,29.43,7,1,13,0.40
2013-11-22,50.1,38.9,33.6,49.0,35.7,30.0,97,88,82,29.90,29.55,13,5,17,0.01
2013-11-23,33.5,27.9,18.0,30.0,18.4,10.0,87,68,52,30.12,29.89,14,4,19,0.00
2013-11-24,29.3,21.9,14.3,12.0,6.5,-99.9,82,57,35,30.15,29.83,7,-19,9,0.00
2013-11-25,36.1,32.3,26.6,24.0,17.5,12.0,64,55,44,29.82,29.54,10,3,14,0.00
2013-11-26,39.7,33.0,23.2,28.0,22.1,10.0,80,65,53,29.64,29.46,17,5,24,0.00
2013-11-27,29.9,22.9,18.0,12.0,9.5,7.0,71,57,42,29.76,29.63,12,4,17,0.00
2013-11-28,46.7,32.4,22.3,25.0,18.0,10.0,73,57,41,29.88,29.63,12,3,20,0.00
2013-11-29,45.3,33.4,18.1,29.0,22.9,15.0,90,67,47,29.97,29.75,6,2,10,0.00
2013-11-30,59.4,44.5,31.0,38.0,33.1,27.0,86,67,45,29.74,29.45,9,2,13,0.00
2013-12-1,57.4,44.8,31.2,40.0,35.9,29.0,93,73,50,29.49,29.26,6,1,8,0.00
2013-12-2,58.9,47.9,40.1,46.0,40.6,34.0,91,76,61,29.25,29.03,8,2,12,0.00
2013-12-3,59.6,52.0,44.7,52.0,48.9,43.0,95,89,77,29.05,28.97,10,3,18,0.00
2013-12-4,67.9,55.1,41.2,56.0,49.3,34.0,97,82,59,29.21,28.86,16,6,24,0.00
2013-12-5,40.8,27.6,21.4,33.0,19.8,13.0,90,73,60,29.68,29.22,13,6,20,0.00
2013-12-6,23.2,20.3,14.9,17.0,10.7,5.0,83,67,57,30.00,29.66,9,4,15,0.00
2013-12-7,22.8,16.1,10.0,10.0,-2.2,-99.9,77,58,50,30.11,29.86,7,-81,11,0.00
2013-12-8,27.4,23.2,18.7,24.0,19.6,9.0,92,86,61,29.86,29.41,11,4,13,0.00
2013-12-9,27.6,23.8,20.5,25.0,15.6,12.0,89,71,61,29.72,29.49,12,5,18,0.00
2013-12-10,36.5,24.8,15.4,18.0,13.5,7.0,80,63,44,29.71,29.63,14,4,22,0.00
2013-12-11,32.7,23.6,10.9,22.0,12.9,-1.0,81,64,49,30.05,29.68,12,3,18,0.00
2013-12-12,38.8,23.9,7.7,16.0,8.8,0.0,75,54,36,30.04,29.66,14,3,16,0.00
2013-12-13,35.2,30.1,21.8,32.0,23.8,15.0,94,78,57,29.66,29.33,7,2,14,0.31
2013-12-14,34.6,31.5,27.0,32.0,29.2,24.0,96,91,86,29.53,29.22,11,5,19,0.19
2013-12-15,37.4,29.0,22.3,29.0,23.8,18.0,88,81,70,29.59,29.41,14,4,19,0.00
2013-12-16,35.6,30.4,25.1,30.0,26.8,23.0,92,86,77,29.52,29.37,7,2,11,0.01
2013-12-17,41.5,33.1,26.2,30.0,25.5,21.0,90,75,59,29.66,29.50,11,4,18,0.11
2013-12-18,54.2,39.4,24.4,39.0,25.8,19.0,85,61,36,29.65,29.30,14,3,24,0.00
2013-12-19,60.2,52.8,47.1,50.0,44.7,39.0,82,74,66,29.30,29.13,14,6,26,0.00
2013-12-20,69.4,52.1,36.1,58.0,47.0,33.0,90,83,68,29.22,29.03,14,5,23,0.05
2013-12-21,36.2,33.0,31.9,33.0,31.3,30.0,94,93,89,29.21,28.94,7,2,15,0.79
2013-12-22,34.2,31.9,27.2,32.0,28.9,22.0,95,88,80,29.66,29.03,12,6,20,0.01
2013-12-23,27.3,20.9,11.0,22.0,14.4,2.0,83,76,66,29.99,29.66,12,7,16,0.00
2013-12-24,22.4,15.3,5.6,12.0,3.3,-3.0,76,60,40,30.03,29.74,16,4,19,0.00
2013-12-25,35.9,30.5,22.1,30.0,23.6,13.0,85,75,66,29.77,29.62,13,6,19,0.00
2013-12-26,50.8,37.3,23.9,29.0,24.8,20.0,94,65,31,29.76,29.62,11,3,14,0.00
2013-12-27,56.4,42.2,28.6,32.0,28.4,24.0,83,60,35,29.76,29.60,10,2,11,0.00
2013-12-28,59.4,47.1,37.3,32.0,29.2,26.0,69,52,30,29.61,29.27,10,4,16,0.00
2013-12-29,43.5,30.3,17.4,31.0,21.7,7.0,82,71,59,29.66,29.22,12,6,22,0.00
2013-12-30,30.3,19.3,9.0,13.0,3.8,0.0,68,52,36,29.76,29.61,11,2,13,0.00
2013-12-31,43.9,34.4,23.6,24.0,19.2,13.0,72,55,43,29.80,29.54,11,4,16,0.00
2014-1-1,47.2,36.2,23.4,30.0,25.6,21.0,91,67,45,29.53,29.38,17,3,17,0.00
2014-1-2,23.1,17.5,10.1,21.0,11.5,5.0,91,78,64,29.89,29.44,13,6,20,0.00